EZY1480 EGHH-EGPH

Flight info

Callsign EZY1480
Flight time 1h 4m
Altitude 32000
Route SAM Q41 SILVA UM605 DTY UY53 SAPCO UN57 POL UN601 RIBEL DCT INPIP
Aircraft A20N/M-SDE2E3FGHIRWXY/LB1

Departure

Time 2026-05-05 16:33
Airport Bournemouth Airport (EGHH)

Arrival

Time 2026-05-05 17:38
Airport Edinburgh Airport (EGPH)
Time Latitude Longitude Altitude Speed Heading
2026-05-05 16:08 50.77806 -1.83378 41 ft 0 kts 86°
2026-05-05 16:23 50.77811 -1.83402 41 ft 2 kts 119°
2026-05-05 16:24 50.77819 -1.83423 41 ft 2 kts 121°
2026-05-05 16:24 50.77824 -1.83442 41 ft 2 kts 98°
2026-05-05 16:24 50.77844 -1.83475 41 ft 1 kts 166°
2026-05-05 16:25 50.77850 -1.83477 41 ft 1 kts 179°
2026-05-05 16:25 50.77854 -1.83477 41 ft 0 kts 175°
2026-05-05 16:28 50.77849 -1.83476 41 ft 1 kts 175°
2026-05-05 16:28 50.77833 -1.83474 41 ft 2 kts 175°
2026-05-05 16:28 50.77808 -1.83471 41 ft 4 kts 175°
2026-05-05 16:29 50.77772 -1.83466 41 ft 5 kts 175°
2026-05-05 16:29 50.77727 -1.83466 42 ft 7 kts 187°
2026-05-05 16:29 50.77673 -1.83479 42 ft 8 kts 188°
2026-05-05 16:29 50.77603 -1.83512 42 ft 12 kts 218°
2026-05-05 16:30 50.77577 -1.83657 42 ft 16 kts 269°
2026-05-05 16:30 50.77585 -1.83852 42 ft 19 kts 279°
2026-05-05 16:30 50.77615 -1.84069 43 ft 21 kts 284°
2026-05-05 16:30 50.77659 -1.84308 44 ft 23 kts 288°
2026-05-05 16:31 50.77706 -1.84571 44 ft 25 kts 281°
2026-05-05 16:31 50.77748 -1.84831 45 ft 24 kts 297°
2026-05-05 16:31 50.77829 -1.85057 45 ft 23 kts 299°
2026-05-05 16:31 50.77832 -1.85297 45 ft 22 kts 255°
2026-05-05 16:32 50.77794 -1.85533 45 ft 21 kts 256°
2026-05-05 16:32 50.77721 -1.85721 45 ft 13 kts 236°
2026-05-05 16:32 50.77757 -1.85759 45 ft 10 kts 60°
2026-05-05 16:32 50.77777 -1.85639 45 ft 12 kts 76°
2026-05-05 16:33 50.77836 -1.85280 45 ft 69 kts 75°
2026-05-05 16:33 50.78018 -1.84186 43 ft 136 kts 76°
2026-05-05 16:33 50.78258 -1.82608 485 ft 149 kts 76°
2026-05-05 16:33 50.78469 -1.81007 1119 ft 152 kts 74°
2026-05-05 16:34 50.78691 -1.79378 1805 ft 155 kts 70°
2026-05-05 16:34 50.79011 -1.77797 2504 ft 154 kts 60°
2026-05-05 16:34 50.79561 -1.76315 3001 ft 168 kts 49°
2026-05-05 16:34 50.80373 -1.74758 3179 ft 201 kts 47°
2026-05-05 16:35 50.81363 -1.72824 3113 ft 240 kts 52°
2026-05-05 16:35 50.82286 -1.70565 3092 ft 248 kts 57°
2026-05-05 16:35 50.83146 -1.68223 3021 ft 248 kts 58°
2026-05-05 16:35 50.84011 -1.65837 2992 ft 248 kts 58°
2026-05-05 16:36 50.84880 -1.63451 3031 ft 252 kts 57°
2026-05-05 16:36 50.85764 -1.61045 3670 ft 260 kts 58°
2026-05-05 16:36 50.86655 -1.58623 4819 ft 257 kts 58°
2026-05-05 16:36 50.87548 -1.56197 5798 ft 260 kts 58°
2026-05-05 16:37 50.88467 -1.53703 6712 ft 265 kts 58°
2026-05-05 16:37 50.89391 -1.51191 7619 ft 269 kts 58°
2026-05-05 16:37 50.90327 -1.48643 8501 ft 274 kts 58°
2026-05-05 16:37 50.91281 -1.46048 9358 ft 279 kts 58°
2026-05-05 16:38 50.92267 -1.43362 10214 ft 283 kts 58°
2026-05-05 16:38 50.93283 -1.40600 10822 ft 297 kts 58°
2026-05-05 16:38 50.94379 -1.37661 11268 ft 315 kts 55°
2026-05-05 16:38 50.95880 -1.35090 11633 ft 332 kts 36°
2026-05-05 16:39 50.97972 -1.33386 12153 ft 344 kts 18°
2026-05-05 16:39 51.00308 -1.32386 12939 ft 348 kts 15°
2026-05-05 16:39 51.02657 -1.31437 13727 ft 352 kts 15°
2026-05-05 16:39 51.05003 -1.30480 14471 ft 356 kts 15°
2026-05-05 16:40 51.07409 -1.29485 15194 ft 360 kts 15°
2026-05-05 16:40 51.09839 -1.28474 15912 ft 364 kts 15°
2026-05-05 16:40 51.12295 -1.27446 16626 ft 367 kts 15°
2026-05-05 16:40 51.14798 -1.26394 17317 ft 371 kts 15°
2026-05-05 16:41 51.17314 -1.25333 17976 ft 375 kts 14°
2026-05-05 16:41 51.19839 -1.24268 18626 ft 379 kts 14°
2026-05-05 16:41 51.22387 -1.23191 19270 ft 383 kts 14°
2026-05-05 16:41 51.24971 -1.22098 19889 ft 387 kts 14°
2026-05-05 16:42 51.27579 -1.20994 20488 ft 391 kts 14°
2026-05-05 16:42 51.30205 -1.19881 21081 ft 395 kts 14°
2026-05-05 16:42 51.32896 -1.18738 21670 ft 399 kts 14°
2026-05-05 16:42 51.35583 -1.17595 22229 ft 403 kts 14°
2026-05-05 16:43 51.38277 -1.16448 22768 ft 407 kts 14°
2026-05-05 16:43 51.41038 -1.15274 23308 ft 411 kts 14°
2026-05-05 16:43 51.43821 -1.14088 23843 ft 414 kts 14°
2026-05-05 16:43 51.46600 -1.12900 24347 ft 418 kts 14°
2026-05-05 16:44 51.49400 -1.11703 24801 ft 422 kts 14°
2026-05-05 16:44 51.52264 -1.10478 25263 ft 427 kts 14°
2026-05-05 16:44 51.55169 -1.09232 25700 ft 431 kts 14°
2026-05-05 16:44 51.58049 -1.07997 26145 ft 434 kts 14°
2026-05-05 16:45 51.61000 -1.06795 26585 ft 437 kts 12°
2026-05-05 16:45 51.63998 -1.05834 26970 ft 440 kts
2026-05-05 16:45 51.67037 -1.05026 27340 ft 444 kts
2026-05-05 16:45 51.70105 -1.04256 27826 ft 445 kts
2026-05-05 16:46 51.73140 -1.03495 28343 ft 446 kts
2026-05-05 16:46 51.76211 -1.02715 28854 ft 446 kts
2026-05-05 16:46 51.79272 -1.01956 29349 ft 446 kts
2026-05-05 16:46 51.82355 -1.01499 29842 ft 445 kts
2026-05-05 16:47 51.85453 -1.01455 30323 ft 445 kts 356°
2026-05-05 16:47 51.88517 -1.01826 30736 ft 445 kts 351°
2026-05-05 16:47 51.91609 -1.02619 31097 ft 447 kts 347°
2026-05-05 16:47 51.94619 -1.03606 31440 ft 448 kts 346°
2026-05-05 16:48 51.97701 -1.04659 31802 ft 449 kts 346°
2026-05-05 16:48 52.00776 -1.05696 31940 ft 451 kts 346°
2026-05-05 16:48 52.06921 -1.07717 31943 ft 451 kts 346°
2026-05-05 16:49 52.13099 -1.09737 31947 ft 450 kts 346°
2026-05-05 16:49 52.19156 -1.12310 31952 ft 448 kts 340°
2026-05-05 16:50 52.24971 -1.15926 31953 ft 446 kts 335°
2026-05-05 16:50 52.30692 -1.19811 31953 ft 445 kts 335°
2026-05-05 16:51 52.36407 -1.23690 31957 ft 444 kts 335°
2026-05-05 16:51 52.42097 -1.27546 31955 ft 443 kts 335°
2026-05-05 16:52 52.47814 -1.31429 31958 ft 442 kts 335°
2026-05-05 16:52 52.53464 -1.35271 31956 ft 442 kts 336°
2026-05-05 16:53 52.59185 -1.38793 31961 ft 442 kts 339°
2026-05-05 16:53 52.64991 -1.42274 31975 ft 441 kts 339°
2026-05-05 16:54 52.70724 -1.45736 31962 ft 439 kts 339°
2026-05-05 16:54 52.76418 -1.49192 31966 ft 436 kts 339°
2026-05-05 16:55 52.82085 -1.52638 31969 ft 434 kts 339°
2026-05-05 16:55 52.87763 -1.56136 31968 ft 433 kts 339°
2026-05-05 16:56 52.93371 -1.59587 31966 ft 433 kts 339°
2026-05-05 16:56 52.99011 -1.63051 31970 ft 432 kts 339°
2026-05-05 16:57 53.04659 -1.66530 31973 ft 432 kts 338°
2026-05-05 16:57 53.10272 -1.69996 31972 ft 432 kts 338°
2026-05-05 16:58 53.15914 -1.73491 31972 ft 432 kts 338°
2026-05-05 16:58 53.21576 -1.77012 31977 ft 431 kts 338°
2026-05-05 16:59 53.27164 -1.80497 31974 ft 431 kts 339°
2026-05-05 16:59 53.32795 -1.84015 31979 ft 431 kts 339°
2026-05-05 17:00 53.38374 -1.87508 31979 ft 430 kts 338°
2026-05-05 17:00 53.43970 -1.91024 31982 ft 430 kts 338°
2026-05-05 17:01 53.49578 -1.94557 31983 ft 429 kts 338°
2026-05-05 17:01 53.55183 -1.98102 31983 ft 430 kts 338°
2026-05-05 17:02 53.60764 -2.01638 31986 ft 430 kts 338°
2026-05-05 17:02 53.66338 -2.05182 31990 ft 431 kts 337°
2026-05-05 17:03 53.71968 -2.08778 31994 ft 432 kts 337°
2026-05-05 17:03 53.77556 -2.12432 31997 ft 433 kts 336°
2026-05-05 17:04 53.83149 -2.16275 31999 ft 434 kts 335°
2026-05-05 17:04 53.88775 -2.20137 31999 ft 434 kts 335°
2026-05-05 17:05 53.94374 -2.23971 32002 ft 435 kts 335°
2026-05-05 17:05 53.99998 -2.27838 32005 ft 436 kts 335°
2026-05-05 17:06 54.05606 -2.31703 32004 ft 437 kts 335°
2026-05-05 17:06 54.11203 -2.35572 31997 ft 437 kts 335°
2026-05-05 17:07 54.16881 -2.39508 31993 ft 436 kts 335°
2026-05-05 17:07 54.22483 -2.43404 31994 ft 436 kts 335°
2026-05-05 17:08 54.28089 -2.47316 31991 ft 436 kts 335°
2026-05-05 17:08 54.33728 -2.51260 31833 ft 436 kts 335°
2026-05-05 17:09 54.36524 -2.53221 31576 ft 434 kts 335°
2026-05-05 17:09 54.39286 -2.55159 31320 ft 431 kts 335°
2026-05-05 17:09 54.42086 -2.57127 31060 ft 428 kts 335°
2026-05-05 17:09 54.44829 -2.59058 30805 ft 426 kts 335°
2026-05-05 17:10 54.47539 -2.60971 30544 ft 426 kts 335°
2026-05-05 17:10 54.50314 -2.62931 30173 ft 426 kts 335°
2026-05-05 17:10 54.53050 -2.64870 29680 ft 427 kts 335°
2026-05-05 17:10 54.55812 -2.66828 29058 ft 427 kts 334°
2026-05-05 17:11 54.58578 -2.68793 28422 ft 427 kts 334°
2026-05-05 17:11 54.61285 -2.70718 27765 ft 427 kts 334°
2026-05-05 17:11 54.64025 -2.72666 27474 ft 416 kts 334°
2026-05-05 17:11 54.66655 -2.74535 27339 ft 401 kts 334°
2026-05-05 17:12 54.69207 -2.76353 27196 ft 388 kts 334°
2026-05-05 17:12 54.71658 -2.78102 27035 ft 376 kts 334°
2026-05-05 17:12 54.74030 -2.79798 26805 ft 366 kts 334°
2026-05-05 17:12 54.76362 -2.81469 26644 ft 355 kts 334°
2026-05-05 17:13 54.78610 -2.83083 26503 ft 344 kts 334°
2026-05-05 17:13 54.80753 -2.84622 26407 ft 332 kts 334°
2026-05-05 17:13 54.82867 -2.86143 26297 ft 322 kts 334°
2026-05-05 17:13 54.84904 -2.87609 26182 ft 316 kts 334°
2026-05-05 17:14 54.86927 -2.89070 26075 ft 313 kts 334°
2026-05-05 17:14 54.88929 -2.90516 25778 ft 315 kts 334°
2026-05-05 17:14 54.90958 -2.91983 25301 ft 317 kts 334°
2026-05-05 17:14 54.93015 -2.93470 24839 ft 319 kts 334°
2026-05-05 17:15 54.95059 -2.94951 24383 ft 320 kts 334°
2026-05-05 17:15 54.97099 -2.96429 23927 ft 321 kts 334°
2026-05-05 17:15 54.99168 -2.97928 23468 ft 321 kts 334°
2026-05-05 17:15 55.01234 -2.99427 23014 ft 321 kts 334°
2026-05-05 17:16 55.03300 -3.00929 22560 ft 321 kts 334°
2026-05-05 17:16 55.05340 -3.02413 22112 ft 321 kts 334°
2026-05-05 17:16 55.07412 -3.03923 21658 ft 320 kts 334°
2026-05-05 17:16 55.09441 -3.05403 21308 ft 317 kts 334°
2026-05-05 17:17 55.11469 -3.06883 20984 ft 312 kts 334°
2026-05-05 17:17 55.13476 -3.08350 20639 ft 309 kts 334°
2026-05-05 17:17 55.15418 -3.09772 20328 ft 304 kts 334°
2026-05-05 17:17 55.17338 -3.11175 19865 ft 298 kts 334°
2026-05-05 17:18 55.19256 -3.12583 19270 ft 295 kts 334°
2026-05-05 17:18 55.21124 -3.13953 18759 ft 290 kts 334°
2026-05-05 17:18 55.22965 -3.15307 18281 ft 288 kts 334°
2026-05-05 17:18 55.24817 -3.16670 17816 ft 286 kts 334°
2026-05-05 17:19 55.26638 -3.18013 17350 ft 287 kts 334°
2026-05-05 17:19 55.28492 -3.19362 16881 ft 289 kts 337°
2026-05-05 17:19 55.30454 -3.20146 16420 ft 294 kts 352°
2026-05-05 17:19 55.32523 -3.20101 15984 ft 297 kts
2026-05-05 17:20 55.34549 -3.19785 15689 ft 292 kts
2026-05-05 17:20 55.36553 -3.19443 15378 ft 289 kts
2026-05-05 17:20 55.38559 -3.19104 15075 ft 284 kts
2026-05-05 17:20 55.40497 -3.18785 14780 ft 280 kts
2026-05-05 17:21 55.42434 -3.18474 14430 ft 278 kts
2026-05-05 17:21 55.44352 -3.18170 14065 ft 277 kts
2026-05-05 17:21 55.46251 -3.17871 13727 ft 275 kts
2026-05-05 17:22 55.50042 -3.17274 13057 ft 271 kts
2026-05-05 17:22 55.51913 -3.16981 12721 ft 269 kts
2026-05-05 17:22 55.53761 -3.16691 12382 ft 266 kts
2026-05-05 17:22 55.55590 -3.16405 12047 ft 265 kts
2026-05-05 17:23 55.57408 -3.16118 11709 ft 263 kts
2026-05-05 17:23 55.59228 -3.15863 11371 ft 260 kts 356°
2026-05-05 17:23 55.60926 -3.16629 10972 ft 253 kts 324°
2026-05-05 17:23 55.62111 -3.18923 10507 ft 254 kts 300°
2026-05-05 17:24 55.62954 -3.21636 10131 ft 254 kts 300°
2026-05-05 17:24 55.63751 -3.24498 9778 ft 262 kts 292°
2026-05-05 17:24 55.64352 -3.27495 9423 ft 261 kts 289°
2026-05-05 17:24 55.64908 -3.30573 9055 ft 259 kts 289°
2026-05-05 17:25 55.65432 -3.33545 8698 ft 250 kts 289°
2026-05-05 17:25 55.65772 -3.35498 8456 ft 244 kts 289°
2026-05-05 17:25 55.66412 -3.39208 7994 ft 232 kts 289°
2026-05-05 17:25 55.66875 -3.41919 7749 ft 223 kts 289°
2026-05-05 17:26 55.67315 -3.44505 7516 ft 217 kts 289°
2026-05-05 17:26 55.67743 -3.47038 7272 ft 213 kts 289°
2026-05-05 17:26 55.68161 -3.49526 7036 ft 212 kts 289°
2026-05-05 17:26 55.68584 -3.52047 6812 ft 212 kts 289°
2026-05-05 17:27 55.69002 -3.54552 6578 ft 212 kts 289°
2026-05-05 17:27 55.69416 -3.57027 6342 ft 212 kts 289°
2026-05-05 17:27 55.69840 -3.59533 6107 ft 213 kts 289°
2026-05-05 17:27 55.70269 -3.62059 5880 ft 213 kts 289°
2026-05-05 17:28 55.70753 -3.64539 5640 ft 212 kts 302°
2026-05-05 17:28 55.71672 -3.66549 5404 ft 207 kts 317°
2026-05-05 17:28 55.72716 -3.68287 5248 ft 196 kts 320°
2026-05-05 17:28 55.73699 -3.69859 5033 ft 189 kts 320°
2026-05-05 17:29 55.74655 -3.71390 4852 ft 180 kts 320°
2026-05-05 17:29 55.75576 -3.72874 4789 ft 179 kts 320°
2026-05-05 17:29 55.76502 -3.74372 4740 ft 179 kts 320°
2026-05-05 17:29 55.77425 -3.75872 4689 ft 179 kts 320°
2026-05-05 17:30 55.78361 -3.77326 4637 ft 179 kts 325°
2026-05-05 17:30 55.79441 -3.78339 4565 ft 175 kts 353°
2026-05-05 17:30 55.80589 -3.77951 4510 ft 169 kts 33°
2026-05-05 17:30 55.81450 -3.76533 4478 ft 168 kts 51°
2026-05-05 17:31 55.82142 -3.74859 4458 ft 168 kts 55°
2026-05-05 17:31 55.82782 -3.73215 4374 ft 150 kts 56°
2026-05-05 17:31 55.83334 -3.71728 4298 ft 142 kts 57°
2026-05-05 17:31 55.83861 -3.70254 4195 ft 141 kts 58°
2026-05-05 17:32 55.84379 -3.68771 3998 ft 140 kts 59°
2026-05-05 17:32 55.84875 -3.67323 3813 ft 138 kts 59°
2026-05-05 17:32 55.85376 -3.65844 3623 ft 138 kts 60°
2026-05-05 17:32 55.85866 -3.64384 3453 ft 138 kts 60°
2026-05-05 17:33 55.86350 -3.62937 3267 ft 136 kts 60°
2026-05-05 17:33 55.86840 -3.61470 3074 ft 136 kts 60°
2026-05-05 17:33 55.87322 -3.60028 2887 ft 135 kts 60°
2026-05-05 17:33 55.87799 -3.58602 2703 ft 135 kts 60°
2026-05-05 17:34 55.88284 -3.57157 2518 ft 135 kts 60°
2026-05-05 17:34 55.88760 -3.55736 2336 ft 134 kts 60°
2026-05-05 17:34 55.89243 -3.54298 2152 ft 134 kts 60°
2026-05-05 17:34 55.89716 -3.52896 1971 ft 134 kts 61°
2026-05-05 17:35 55.90192 -3.51482 1790 ft 133 kts 61°
2026-05-05 17:35 55.90673 -3.50052 1613 ft 133 kts 60°
2026-05-05 17:35 55.91150 -3.48638 1430 ft 133 kts 60°
2026-05-05 17:35 55.91621 -3.47242 1254 ft 132 kts 60°
2026-05-05 17:36 55.92094 -3.45842 1075 ft 132 kts 60°
2026-05-05 17:36 55.92568 -3.44441 894 ft 131 kts 60°
2026-05-05 17:36 55.93037 -3.43051 716 ft 131 kts 60°
2026-05-05 17:36 55.93505 -3.41662 536 ft 131 kts 60°
2026-05-05 17:37 55.93965 -3.40288 320 ft 127 kts 60°
2026-05-05 17:37 55.94270 -3.39406 216 ft 124 kts 60°
2026-05-05 17:37 55.94836 -3.37725 106 ft 104 kts 58°
2026-05-05 17:37 55.95137 -3.36843 105 ft 68 kts 58°
2026-05-05 17:38 55.95251 -3.36496 105 ft 9 kts 69°
2026-05-05 17:38 55.95232 -3.36397 105 ft 6 kts 141°
2026-05-05 17:38 55.95224 -3.36386 105 ft 0 kts 145°
2026-05-05 17:38 55.95219 -3.36380 105 ft 0 kts 145°
2026-05-05 17:39 55.95218 -3.36380 105 ft 0 kts 145°
2026-05-05 17:39 55.95201 -3.36360 105 ft 6 kts 147°
2026-05-05 17:39 55.95147 -3.36315 105 ft 9 kts 176°
2026-05-05 17:39 55.95097 -3.36380 105 ft 5 kts 216°
2026-05-05 17:40 55.95056 -3.36390 105 ft 6 kts 172°
2026-05-05 17:40 55.95010 -3.36421 105 ft 8 kts 226°
2026-05-05 17:40 55.94979 -3.36482 105 ft 3 kts 188°
2026-05-05 17:40 55.94955 -3.36467 105 ft 4 kts 149°
2026-05-05 17:41 55.94931 -3.36441 105 ft 1 kts 147°
2026-05-05 17:41 55.94922 -3.36430 105 ft 0 kts 147°
2026-05-05 17:41 55.94920 -3.36429 105 ft 0 kts 147°